Flag for Brazil Weather past 2 weeks in Belo Horizonte, Minas Gerais, Brazil

Now
68 °F

Sunny.


Feels Like: 68 °F
Forecast: 69 / 87 °F
Wind: 2 mph from Southeast

Location: Belo Horizonte Airport

Current Time: Jan 26, 2015 at 9:08:12 AM

Latest Report: Jan 26, 2015 at 8:00 AM


Visibility: 10 mi

Pressure: 30.09 "Hg

Humidity: 88%

Dew point: 64 °F

Location of Belo HorizonteLocation

Historic Weather in Belo Horizonte — Graph

°F

Belo Horizonte temperature yesterday

Maximum temperature yesterday: 81 °F (at 1:00 PM)
Minimum temperature yesterday: 64 °F (at 12:00 AM)
Average temperature yesterday: 71 °F

Past Weeks' High & Low Weather Summary

 TemperatureHumidityPressure
High95 °F (Jan 21, 4:00 PM)94% (Jan 24, 5:00 PM)30.18 "Hg (Jan 24, 5:00 PM)
Low64 °F (Jan 25, 12:00 AM)16% (Jan 12, 4:00 PM)29.50 "Hg (Jan 12, 10:00 AM)
Average78 °F50%30.06 "Hg
* Reported Jan 11 8:00 AM — Jan 26 8:00 AM, Belo Horizonte, Weather by CustomWeather, © 2014

Note: Actual official high and low records may vary slightly from our data, if they occured in-between our weather recording intervals... More about our weather records

Advertising

Belo Horizonte weather history for previous 24 hours

 ConditionsComfort  
Time TempWeatherWind HumidityBarometerVisibility
8:00 AM
Jan 26
68 °FSunny.2 mph88%30.09 "Hg10 mi
7:00 AM66 °FClear.5 mph88%30.07 "Hg10 mi
6:00 AM66 °FClear.2 mph94%30.07 "Hg10 mi
5:00 AM66 °FClear.2 mph94%30.07 "Hg10 mi
4:00 AM66 °FClear.1 mph94%30.04 "Hg10 mi
3:00 AM66 °FClear.3 mph94%30.04 "Hg10 mi
2:00 AM68 °FClear.No wind88%30.07 "Hg10 mi
1:00 AM68 °FClear.3 mph88%30.07 "Hg10 mi
12:00 AM68 °FClear.3 mph88%30.09 "Hg10 mi
11:00 PM
Jan 25
68 °FClear.2 mph88%30.09 "Hg10 mi
10:00 PM68 °FClear.2 mph88%30.09 "Hg10 mi
9:00 PM68 °FClear.5 mph88%30.04 "Hg10 mi
8:00 PM70 °FScattered clouds.2 mph88%30.04 "HgN/A
7:00 PM70 °FScattered clouds.3 mph88%30.04 "HgN/A
6:00 PM70 °FThunderstorms. Scattered clouds.7 mph88%N/A4 mi
5:00 PM73 °FThunderstorms. Scattered clouds.9 mphN/AN/A5 mi
4:00 PM77 °FThunderstorms. Partly sunny.10 mphN/AN/AN/A
3:00 PM77 °FScattered showers. Partly sunny.18 mph61%N/AN/A
2:00 PM81 °FPartly sunny.5 mph48%30.07 "HgN/A
1:00 PM81 °FPartly sunny.6 mph48%30.09 "HgN/A
12:00 PM79 °FScattered clouds.7 mph54%30.12 "HgN/A
11:00 AM77 °FScattered clouds.10 mph61%30.12 "HgN/A
10:00 AM73 °FScattered clouds.12 mph65%30.12 "HgN/A
9:00 AM70 °FScattered clouds.5 mph83%30.12 "HgN/A
Weather by CustomWeather, © 2014

See weather overviewHow to use our weather pages